User: anonymous   Login
Location: Wanzleben
(52.0609°N, 11.4408°E)
Time: 03:26:48
(UTC+00:00)
Language:

Lacrosse 5 rocket - Orbit

View from above orbital plane
View from above orbital plane
View from above satellite
View from above satellite

Ground track
Ground track

The orbit data is extracted from the following two-line orbital elements,

1 28647U 05016B   20329.65244693  .00000590  00000-0  51467-4 0  9995
2 28647  56.9967 308.9239 0129560  73.1830 288.3372 15.06135048 84097
Epoch (UTC): 24 November 2020 15:39:31
Eccentricity: 0.0129560
inclination: 56.9967°
perigee height: 458 km
apogee height: 638 km
right ascension of ascending node: 308.9239°
argument of perigee: 73.1830°
revolutions per day: 15.06135048
mean anomaly at epoch: 288.3372°
orbit number at epoch: 8409

The dashed part of the orbit path shows where the satellite is in the earth's shadow,  

DLR